Time,TemperatureF,DewpointF,PressureIn,WindDirection,WindDirectionDegrees,WindSpeedMPH,WindSpeedGustMPH,Humidity,HourlyPrecipIn,Conditions,Clouds,dailyrainin,SolarRadiationWatts/m^2,SoftwareType,DateUTC
2013-02-21 00:05:00,15.2,11.0,29.71,NW,314,6.0,26.0,83,0.00,,,0.00,0,weatherlink.com 1.10,2013-02-21 05:05:00,
2013-02-21 00:20:00,15.0,11.0,29.73,NW,304,4.0,19.0,84,0.00,,,0.00,0,weatherlink.com 1.10,2013-02-21 05:20:00,
2013-02-21 00:36:00,15.2,11.0,29.73,NW,320,11.0,21.0,82,0.00,,,0.00,0,weatherlink.com 1.10,2013-02-21 05:36:00,
2013-02-21 00:51:00,15.0,11.0,29.73,SSW,206,2.0,20.0,83,0.00,,,0.00,0,weatherlink.com 1.10,2013-02-21 05:51:00,
2013-02-21 01:06:00,14.7,11.0,29.73,South,180,6.0,20.0,84,0.00,,,0.00,0,weatherlink.com 1.10,2013-02-21 06:06:00,
2013-02-21 01:21:00,14.6,10.0,29.73,North,360,7.0,21.0,83,0.00,,,0.00,0,weatherlink.com 1.10,2013-02-21 06:21:00,
2013-02-21 01:36:00,14.6,11.0,29.73,NW,311,12.0,20.0,84,0.00,,,0.00,0,weatherlink.com 1.10,2013-02-21 06:36:00,
2013-02-21 01:51:00,14.4,10.0,29.73,WNW,292,4.0,24.0,83,0.00,,,0.00,0,weatherlink.com 1.10,2013-02-21 06:51:00,
2013-02-21 02:06:00,14.3,10.0,29.73,NW,323,2.0,22.0,84,0.00,,,0.00,0,weatherlink.com 1.10,2013-02-21 07:06:00,
2013-02-21 02:21:00,14.2,11.0,29.73,NNW,333,3.0,15.0,85,0.00,,,0.00,0,weatherlink.com 1.10,2013-02-21 07:21:00,
2013-02-21 02:36:00,14.0,10.0,29.73,NW,315,5.0,14.0,85,0.00,,,0.00,0,weatherlink.com 1.10,2013-02-21 07:36:00,
2013-02-21 02:51:00,13.9,10.0,29.73,NW,313,7.0,15.0,85,0.00,,,0.00,0,weatherlink.com 1.10,2013-02-21 07:51:00,
2013-02-21 03:06:00,13.6,10.0,29.73,West,259,7.0,18.0,85,0.00,,,0.00,0,weatherlink.com 1.10,2013-02-21 08:06:00,
2013-02-21 03:21:00,13.5,10.0,29.72,WNW,292,7.0,19.0,85,0.00,,,0.00,0,weatherlink.com 1.10,2013-02-21 08:21:00,
2013-02-21 03:36:00,13.2,10.0,29.73,NW,316,5.0,18.0,85,0.00,,,0.00,0,weatherlink.com 1.10,2013-02-21 08:36:00,
2013-02-21 03:51:00,13.1,9.0,29.73,WNW,297,3.0,15.0,84,0.00,,,0.00,0,weatherlink.com 1.10,2013-02-21 08:51:00,
2013-02-21 04:06:00,12.7,8.0,29.73,WSW,255,5.0,20.0,80,0.00,,,0.00,0,weatherlink.com 1.10,2013-02-21 09:06:00,
2013-02-21 04:21:00,12.5,7.0,29.73,WNW,290,5.0,23.0,78,0.00,,,0.00,0,weatherlink.com 1.10,2013-02-21 09:21:00,
2013-02-21 04:36:00,12.2,6.0,29.73,NW,309,6.0,23.0,77,0.00,,,0.00,0,weatherlink.com 1.10,2013-02-21 09:36:00,
2013-02-21 04:51:00,12.0,6.0,29.74,NW,320,4.0,23.0,77,0.00,,,0.00,0,weatherlink.com 1.10,2013-02-21 09:51:00,
2013-02-21 05:06:00,11.8,6.0,29.76,NW,306,8.0,26.0,76,0.00,,,0.00,0,weatherlink.com 1.10,2013-02-21 10:06:00,
2013-02-21 05:21:00,11.6,5.0,29.75,South,186,9.0,27.0,76,0.00,,,0.00,0,weatherlink.com 1.10,2013-02-21 10:21:00,
2013-02-21 05:36:00,11.7,6.0,29.78,WNW,290,2.0,19.0,76,0.00,,,0.00,0,weatherlink.com 1.10,2013-02-21 10:36:00,
2013-02-21 05:51:00,11.4,6.0,29.79,NW,320,3.0,13.0,77,0.00,,,0.00,0,weatherlink.com 1.10,2013-02-21 10:51:00,
2013-02-21 06:06:00,11.3,6.0,29.80,NW,315,12.0,24.0,79,0.00,,,0.00,0,weatherlink.com 1.10,2013-02-21 11:06:00,
2013-02-21 06:21:00,11.3,6.0,29.79,SW,226,6.0,20.0,80,0.00,,,0.00,0,weatherlink.com 1.10,2013-02-21 11:21:00,
2013-02-21 06:36:00,11.1,6.0,29.80,NW,311,13.0,14.0,81,0.00,,,0.00,0,weatherlink.com 1.10,2013-02-21 11:36:00,
2013-02-21 06:52:00,11.0,6.0,29.80,ESE,102,1.0,13.0,80,0.00,,,0.00,5,weatherlink.com 1.10,2013-02-21 11:52:00,
2013-02-21 07:07:00,10.7,6.0,29.80,NW,319,1.0,15.0,80,0.00,,,0.00,9,weatherlink.com 1.10,2013-02-21 12:07:00,
2013-02-21 07:22:00,10.4,5.0,29.81,WNW,294,0.0,12.0,80,0.00,,,0.00,37,weatherlink.com 1.10,2013-02-21 12:22:00,
2013-02-21 07:38:00,11.2,6.0,29.80,WSW,250,5.0,12.0,78,0.00,,,0.00,105,weatherlink.com 1.10,2013-02-21 12:38:00,
2013-02-21 07:52:00,12.0,6.0,29.79,NNW,327,8.0,20.0,75,0.00,,,0.00,172,weatherlink.com 1.10,2013-02-21 12:52:00,
2013-02-21 08:07:00,12.6,6.0,29.81,North,360,22.0,22.0,74,0.00,,,0.00,250,weatherlink.com 1.10,2013-02-21 13:07:00,
2013-02-21 08:22:00,13.2,6.0,29.80,NNW,328,4.0,14.0,73,0.00,,,0.00,288,weatherlink.com 1.10,2013-02-21 13:22:00,
2013-02-21 08:37:00,13.7,7.0,29.79,NW,311,9.0,15.0,73,0.00,,,0.00,408,weatherlink.com 1.10,2013-02-21 13:37:00,
2013-02-21 08:54:00,12.7,6.0,29.81,ESE,121,1.0,19.0,73,0.00,,,0.00,241,weatherlink.com 1.10,2013-02-21 13:54:00,
2013-02-21 09:09:00,12.1,6.0,29.82,NW,309,7.0,21.0,75,0.00,,,0.00,413,weatherlink.com 1.10,2013-02-21 14:09:00,
2013-02-21 09:23:00,12.2,6.0,29.82,NW,316,12.0,21.0,75,0.00,,,0.00,279,weatherlink.com 1.10,2013-02-21 14:23:00,
2013-02-21 09:39:00,13.0,6.0,29.81,NW,318,8.0,26.0,73,0.00,,,0.00,529,weatherlink.com 1.10,2013-02-21 14:39:00,
2013-02-21 09:53:00,12.5,5.0,29.81,NW,306,2.0,18.0,73,0.00,,,0.00,357,weatherlink.com 1.10,2013-02-21 14:53:00,
2013-02-21 10:09:00,13.2,6.0,29.83,WNW,284,10.0,22.0,72,0.00,,,0.00,575,weatherlink.com 1.10,2013-02-21 15:09:00,
2013-02-21 10:24:00,14.0,7.0,29.83,SE,140,7.0,22.0,72,0.00,,,0.00,589,weatherlink.com 1.10,2013-02-21 15:24:00,
2013-02-21 10:38:00,14.3,7.0,29.82,NW,313,13.0,16.0,71,0.00,,,0.00,624,weatherlink.com 1.10,2013-02-21 15:38:00,
2013-02-21 10:54:00,14.3,6.0,29.83,NNW,339,3.0,27.0,70,0.00,,,0.00,643,weatherlink.com 1.10,2013-02-21 15:54:00,
2013-02-21 11:09:00,14.3,6.0,29.84,WNW,296,7.0,18.0,70,0.00,,,0.00,661,weatherlink.com 1.10,2013-02-21 16:09:00,
2013-02-21 11:25:00,14.2,7.0,29.84,WNW,299,8.0,19.0,72,0.00,,,0.00,670,weatherlink.com 1.10,2013-02-21 16:25:00,
2013-02-21 11:40:00,14.9,7.0,29.84,NW,311,5.0,16.0,70,0.00,,,0.00,684,weatherlink.com 1.10,2013-02-21 16:40:00,
2013-02-21 11:54:00,14.7,7.0,29.85,NNW,340,8.0,20.0,70,0.00,,,0.00,684,weatherlink.com 1.10,2013-02-21 16:54:00,
2013-02-21 12:12:00,15.4,7.0,29.85,NW,311,8.0,27.0,70,0.00,,,0.00,687,weatherlink.com 1.10,2013-02-21 17:12:00,
2013-02-21 12:25:00,15.8,8.0,29.85,South,173,7.0,24.0,70,0.00,,,0.00,689,weatherlink.com 1.10,2013-02-21 17:25:00,
2013-02-21 12:42:00,16.2,8.0,29.86,WNW,292,9.0,20.0,71,0.00,,,0.00,694,weatherlink.com 1.10,2013-02-21 17:42:00,
2013-02-21 12:55:00,16.0,8.0,29.86,WNW,288,4.0,19.0,70,0.00,,,0.00,687,weatherlink.com 1.10,2013-02-21 17:55:00,
2013-02-21 13:12:00,16.4,8.0,29.88,NNW,333,10.0,18.0,69,0.00,,,0.00,675,weatherlink.com 1.10,2013-02-21 18:12:00,
2013-02-21 13:25:00,16.2,8.0,29.87,WNW,290,6.0,26.0,69,0.00,,,0.00,619,weatherlink.com 1.10,2013-02-21 18:25:00,
2013-02-21 13:41:00,16.5,8.0,29.88,NW,321,5.0,28.0,69,0.00,,,0.00,659,weatherlink.com 1.10,2013-02-21 18:41:00,
2013-02-21 13:56:00,17.0,8.0,29.89,NW,313,11.0,24.0,68,0.00,,,0.00,596,weatherlink.com 1.10,2013-02-21 18:56:00,
2013-02-21 14:12:00,17.3,8.0,29.90,NW,325,6.0,27.0,67,0.00,,,0.00,555,weatherlink.com 1.10,2013-02-21 19:12:00,
2013-02-21 14:27:00,17.7,8.0,29.91,WNW,296,7.0,25.0,67,0.00,,,0.00,527,weatherlink.com 1.10,2013-02-21 19:27:00,
2013-02-21 14:42:00,18.0,9.0,29.92,NW,316,5.0,22.0,67,0.00,,,0.00,487,weatherlink.com 1.10,2013-02-21 19:42:00,
2013-02-21 14:56:00,17.9,9.0,29.94,NW,323,8.0,25.0,67,0.00,,,0.00,436,weatherlink.com 1.10,2013-02-21 19:56:00,
2013-02-21 15:12:00,17.2,8.0,29.94,NNW,348,8.0,16.0,68,0.00,,,0.00,378,weatherlink.com 1.10,2013-02-21 20:12:00,
2013-02-21 15:27:00,16.9,9.0,29.96,North,355,5.0,20.0,70,0.00,,,0.00,42,weatherlink.com 1.10,2013-02-21 20:27:00,
2013-02-21 15:42:00,16.5,8.0,29.96,WNW,298,4.0,16.0,70,0.00,,,0.00,37,weatherlink.com 1.10,2013-02-21 20:42:00,
2013-02-21 15:58:00,16.8,9.0,29.98,SSE,157,6.0,16.0,71,0.00,,,0.00,33,weatherlink.com 1.10,2013-02-21 20:58:00,
2013-02-21 16:13:00,16.0,8.0,30.00,WNW,288,5.0,15.0,72,0.00,,,0.00,32,weatherlink.com 1.10,2013-02-21 21:13:00,
2013-02-21 16:27:00,15.8,8.0,30.00,North,355,6.0,20.0,72,0.00,,,0.00,25,weatherlink.com 1.10,2013-02-21 21:27:00,
2013-02-21 16:43:00,15.5,8.0,30.02,NNW,332,2.0,18.0,72,0.00,,,0.00,19,weatherlink.com 1.10,2013-02-21 21:43:00,
2013-02-21 16:58:00,15.3,8.0,30.02,SW,219,5.0,22.0,73,0.00,,,0.00,16,weatherlink.com 1.10,2013-02-21 21:58:00,
2013-02-21 17:13:00,15.4,9.0,30.04,NW,319,15.0,15.0,74,0.00,,,0.00,11,weatherlink.com 1.10,2013-02-21 22:13:00,
2013-02-21 17:28:00,15.9,9.0,30.05,NW,304,5.0,20.0,75,0.00,,,0.00,5,weatherlink.com 1.10,2013-02-21 22:28:00,
2013-02-21 17:43:00,16.2,10.0,30.06,NW,325,6.0,21.0,76,0.00,,,0.00,0,weatherlink.com 1.10,2013-02-21 22:43:00,
2013-02-21 17:59:00,16.6,11.0,30.07,NNW,340,12.0,23.0,78,0.00,,,0.00,0,weatherlink.com 1.10,2013-02-21 22:59:00,
2013-02-21 18:13:00,16.7,11.0,30.10,NNE,15,6.0,23.0,78,0.00,,,0.00,0,weatherlink.com 1.10,2013-02-21 23:13:00,
2013-02-21 18:29:00,16.8,11.0,30.11,NW,304,9.0,24.0,79,0.00,,,0.00,0,weatherlink.com 1.10,2013-02-21 23:29:00,
2013-02-21 18:45:00,17.3,12.0,30.11,NW,306,2.0,27.0,81,0.00,,,0.00,0,weatherlink.com 1.10,2013-02-21 23:45:00,
2013-02-21 19:01:00,17.5,13.0,30.12,NNW,329,19.0,26.0,81,0.00,,,0.00,0,weatherlink.com 1.10,2013-02-22 00:01:00,
2013-02-21 19:15:00,16.9,12.0,30.12,WNW,300,11.0,29.0,82,0.00,,,0.00,0,weatherlink.com 1.10,2013-02-22 00:15:00,
2013-02-21 19:29:00,17.4,13.0,30.13,NW,311,7.0,23.0,83,0.00,,,0.00,0,weatherlink.com 1.10,2013-02-22 00:29:00,
2013-02-21 19:46:00,17.7,13.0,30.13,West,280,7.0,29.0,83,0.00,,,0.00,0,weatherlink.com 1.10,2013-02-22 00:46:00,
2013-02-21 19:59:00,17.7,13.0,30.14,West,281,5.0,24.0,82,0.00,,,0.00,0,weatherlink.com 1.10,2013-02-22 00:59:00,
2013-02-21 20:15:00,18.0,13.0,30.14,NNW,344,8.0,21.0,82,0.00,,,0.00,0,weatherlink.com 1.10,2013-02-22 01:15:00,
2013-02-21 20:30:00,18.3,14.0,30.14,NNE,13,10.0,26.0,82,0.00,,,0.00,0,weatherlink.com 1.10,2013-02-22 01:30:00,
2013-02-21 20:46:00,18.9,14.0,30.14,NW,318,9.0,25.0,82,0.00,,,0.00,0,weatherlink.com 1.10,2013-02-22 01:46:00,
2013-02-21 21:01:00,19.1,14.0,30.14,NW,313,7.0,24.0,81,0.00,,,0.00,0,weatherlink.com 1.10,2013-02-22 02:01:00,
2013-02-21 21:16:00,19.3,15.0,30.17,NNW,333,15.0,25.0,82,0.00,,,0.00,0,weatherlink.com 1.10,2013-02-22 02:16:00,
2013-02-21 21:31:00,19.5,15.0,30.18,NW,307,5.0,23.0,82,0.00,,,0.00,0,weatherlink.com 1.10,2013-02-22 02:31:00,
2013-02-21 21:46:00,18.9,14.0,30.19,NW,315,6.0,22.0,82,0.00,,,0.00,0,weatherlink.com 1.10,2013-02-22 02:46:00,
2013-02-21 22:01:00,19.1,15.0,30.20,NW,325,8.0,29.0,82,0.00,,,0.00,0,weatherlink.com 1.10,2013-02-22 03:01:00,
2013-02-21 22:16:00,19.1,14.0,30.21,NW,309,6.0,22.0,81,0.00,,,0.00,0,weatherlink.com 1.10,2013-02-22 03:16:00,
2013-02-21 22:31:00,18.4,14.0,30.23,NW,322,7.0,19.0,82,0.00,,,0.00,0,weatherlink.com 1.10,2013-02-22 03:31:00,
2013-02-21 22:46:00,18.6,14.0,30.23,West,277,10.0,27.0,83,0.00,,,0.00,0,weatherlink.com 1.10,2013-02-22 03:46:00,
2013-02-21 23:01:00,19.2,15.0,30.24,NNW,342,8.0,24.0,83,0.00,,,0.00,0,weatherlink.com 1.10,2013-02-22 04:01:00,
2013-02-21 23:16:00,19.9,15.0,30.26,NW,307,5.0,26.0,82,0.00,,,0.00,0,weatherlink.com 1.10,2013-02-22 04:16:00,
2013-02-21 23:46:00,18.6,15.0,30.28,WNW,302,9.0,25.0,84,0.00,,,0.00,0,weatherlink.com 1.10,2013-02-22 04:46:00,